Theta_e
294 294 295 294 294 294 294 293 292 292 293 292 292 291 291 291 290 290 290 290 290 289 289 289 288 287 286 286 286 286 286 285 285 285 285 285 285 285 284 284 284 284 284 283 283 283 283 283 284 284 285 284 283 282 282 282 282 282 282 282 281 281 280 280 280 280 280 280 280
294 293 293 293 293 294 294 293 292 292 292 292 292 291 290 291 290 290 289 289 290 289 289 289 287 286 286 286 286 286 286 285 285 285 285 285 284 284 284 284 284 284 283 283 283 283 283 283 284 284 284 284 283 282 282 281 281 281 281 281 281 280 280 280 280 280 280 280 280
293 293 293 294 294 294 294 293 292 291 290 290 291 291 290 290 290 290 290 289 288 288 288 288 286 286 286 286 286 286 286 286 285 285 284 284 284 284 284 283 283 283 283 283 283 283 283 283 283 284 284 284 282 282 282 282 281 281 281 281 281 281 281 282 280 280 280 281 280
293 293 293 293 293 293 293 293 291 290 290 290 289 289 289 290 290 289 289 287 287 288 288 287 286 286 286 286 286 286 286 285 285 285 284 284 284 284 284 283 283 283 282 282 282 282 282 283 284 284 283 282 281 282 282 282 281 281 281 281 281 281 281 282 281 281 281 281 280
293 293 293 293 293 292 292 292 291 290 290 290 290 290 289 289 289 288 288 287 288 288 287 286 286 286 285 286 286 286 285 285 285 285 284 284 284 283 283 283 283 283 282 282 282 282 282 283 283 283 282 281 282 282 281 280 280 280 281 281 281 281 281 281 281 281 281 281 280
293 293 293 293 292 292 292 291 291 290 290 290 290 289 289 289 289 288 288 288 287 287 286 286 286 285 285 285 285 285 285 285 285 284 284 284 283 283 283 283 283 282 282 282 282 282 282 282 283 283 282 282 281 280 280 279 280 280 280 281 281 281 281 281 281 281 281 279 279
294 294 293 293 292 292 292 291 290 290 290 290 289 289 288 288 287 287 287 287 287 286 286 286 286 286 285 285 285 285 285 284 284 284 284 283 283 283 283 282 282 282 282 282 282 282 282 282 283 283 283 283 282 281 279 279 279 279 280 280 281 281 280 279 280 280 279 278 277
294 294 294 293 293 292 292 291 290 290 290 290 290 289 288 287 287 286 286 286 286 286 286 286 286 286 286 286 285 285 285 284 284 284 283 283 283 283 282 282 282 282 282 282 282 281 281 282 282 282 282 282 282 281 279 278 279 279 279 279 280 280 279 278 277 278 278 277 277
295 294 294 293 293 292 292 291 290 290 290 290 289 289 288 288 287 287 287 287 286 286 286 286 286 286 286 286 286 285 285 285 284 284 283 283 283 282 282 281 281 281 281 281 281 281 281 282 282 282 281 282 281 280 279 279 279 278 278 278 279 278 278 277 276 276 277 277 277
295 294 294 293 293 292 291 291 290 290 290 289 289 288 288 288 288 287 287 287 286 286 286 286 286 286 286 286 286 285 285 285 284 284 283 283 283 282 282 282 281 281 281 281 281 281 281 281 280 280 279 279 279 279 279 279 278 278 278 278 278 277 276 276 276 276 276 277 277
294 294 294 293 292 292 291 290 290 290 290 290 289 288 288 288 288 287 287 286 286 286 286 286 286 286 286 286 286 285 285 284 284 284 283 283 282 282 282 282 282 281 281 281 281 281 280 280 279 279 279 278 278 278 278 278 278 278 277 277 277 276 276 276 275 275 275 276 276
294 294 294 293 292 292 291 291 290 290 290 289 289 289 288 288 288 287 287 287 287 286 286 286 286 287 286 286 285 285 284 284 284 284 283 282 282 281 282 282 282 282 281 281 281 281 280 280 279 279 278 278 278 278 278 278 278 277 277 276 276 276 276 276 276 275 274 274 276
294 294 294 293 292 292 291 291 290 290 290 289 289 289 289 289 288 287 287 287 287 286 286 286 286 286 286 286 285 285 284 284 283 283 283 282 281 281 281 281 282 282 282 281 281 280 280 280 279 279 278 278 278 277 278 278 277 277 277 276 276 276 276 276 276 275 274 274 275
294 294 293 293 292 292 292 291 290 290 290 289 289 289 289 289 288 288 288 288 287 286 285 285 285 286 286 286 285 285 284 284 283 283 282 281 281 281 281 281 282 282 282 281 280 280 280 280 279 279 278 278 278 277 277 277 277 276 276 276 276 276 276 276 276 275 275 275 276
294 293 293 293 292 292 292 291 291 290 290 289 289 289 289 289 288 288 288 288 286 285 285 285 285 285 285 285 285 285 284 284 283 283 282 281 281 281 281 282 282 282 281 281 280 280 280 280 279 279 278 278 278 277 277 277 276 276 276 276 276 276 276 276 276 276 276 276 275
293 293 293 292 292 292 292 291 291 291 290 290 289 289 289 289 288 288 287 287 286 285 284 285 285 285 284 284 285 284 284 284 283 283 282 281 281 281 281 281 281 281 281 281 280 280 280 280 279 279 278 278 278 277 276 276 276 276 276 276 276 276 276 276 276 276 276 276 275
293 293 292 292 292 291 291 291 291 291 290 290 289 289 289 289 288 288 287 287 286 285 284 285 285 284 284 283 283 283 284 284 283 283 282 282 281 281 281 281 282 281 281 281 280 280 280 279 279 279 279 278 278 277 277 276 276 276 276 276 276 276 276 277 276 276 275 275 275
293 293 292 292 292 291 291 291 291 291 290 289 289 288 288 289 288 288 287 286 286 285 285 284 284 284 284 283 283 283 283 284 283 283 283 282 282 282 282 282 282 282 281 281 281 280 280 279 279 279 279 278 277 277 277 276 276 276 276 276 276 276 276 276 275 275 275 275 275
293 293 292 292 292 291 291 291 290 290 290 289 288 288 288 288 288 288 287 286 286 286 286 285 283 283 283 284 283 283 283 284 284 283 283 282 282 282 282 282 282 281 281 281 281 281 281 280 280 279 279 278 277 277 276 276 276 276 276 276 276 276 275 275 275 274 274 274 275
293 293 292 292 292 291 291 291 291 290 289 288 288 288 288 288 288 288 288 287 286 286 286 285 284 283 283 283 283 283 283 284 284 284 284 282 282 282 282 282 282 281 281 281 281 281 281 280 280 279 279 278 278 277 276 276 275 275 275 276 275 275 275 275 274 274 274 274 275
293 293 293 293 292 292 291 291 291 290 289 287 287 287 287 287 288 288 288 288 287 286 286 285 284 284 283 283 283 283 283 284 284 284 284 283 283 283 283 283 282 282 281 281 281 281 281 280 280 279 279 278 278 277 276 275 275 275 275 275 275 275 274 274 274 274 274 275 275
294 293 293 293 292 292 291 291 290 289 288 287 286 286 287 287 287 287 288 287 286 286 285 285 285 285 284 284 284 284 284 283 284 284 284 283 283 283 283 283 283 282 281 281 281 281 281 280 280 279 279 278 277 277 276 276 275 275 275 275 275 274 274 274 274 274 275 275 275
293 293 293 292 292 291 290 290 289 288 287 286 286 286 286 286 286 286 286 286 285 285 285 285 285 285 285 285 285 284 284 283 283 283 283 283 283 283 283 283 283 282 282 281 281 281 280 280 279 279 278 278 277 276 276 276 276 275 275 275 275 274 274 274 274 274 275 275 275
293 293 292 292 291 290 290 289 288 287 287 286 285 285 285 285 285 286 285 285 285 285 285 285 285 285 285 285 285 284 284 283 283 283 282 282 283 283 283 283 283 283 283 282 282 282 282 281 279 278 278 277 276 276 275 276 275 275 275 275 275 275 274 274 274 275 275 275 275
293 292 292 291 290 290 289 288 288 287 286 286 285 285 285 285 285 285 284 284 284 284 285 285 285 285 285 285 284 284 284 284 283 283 282 282 283 283 283 283 283 283 283 283 285 286 285 283 281 279 278 277 276 276 275 276 276 276 276 276 276 275 274 274 274 275 275 275 275
292 292 291 290 290 289 289 288 288 287 286 286 285 285 285 286 285 284 284 284 284 284 284 284 284 285 285 284 284 283 283 283 283 284 283 283 283 283 283 283 284 284 284 285 287 287 287 286 284 281 279 277 276 276 275 275 276 276 276 276 276 275 275 274 274 275 275 275 275
291 291 290 290 289 289 289 288 287 286 286 285 285 285 285 285 284 283 283 283 283 283 283 284 284 285 284 284 283 283 283 283 283 284 284 285 284 284 284 283 283 284 285 287 288 288 287 287 285 283 280 277 277 276 276 276 276 276 276 276 275 275 274 274 274 275 275 275 274
291 290 290 289 289 288 288 287 286 286 286 285 285 285 284 283 283 283 283 283 282 282 283 283 283 284 284 284 284 284 283 284 284 285 285 286 285 285 284 284 284 285 286 288 288 288 288 287 286 284 282 278 277 276 276 277 277 277 276 276 275 274 274 274 274 274 275 275 274
290 290 289 289 288 288 287 287 286 286 285 285 284 284 284 283 283 283 283 283 283 283 283 283 283 283 284 284 284 284 284 284 285 286 286 285 285 285 285 284 284 285 287 289 289 289 288 288 287 285 284 281 278 277 277 277 277 276 276 275 274 274 273 273 274 274 274 274 274
290 289 289 288 288 287 287 286 286 285 284 284 284 284 284 284 284 283 283 283 284 284 284 284 283 284 284 284 284 284 285 285 285 286 286 285 286 285 285 284 285 285 287 289 289 288 288 288 287 286 285 283 280 277 276 276 276 276 275 274 274 273 273 273 274 274 274 274 273
289 289 288 288 287 287 286 285 285 284 284 284 284 284 284 285 284 284 284 284 285 284 284 284 284 284 284 284 285 285 286 286 286 286 286 286 286 286 285 284 285 286 287 289 289 288 288 288 287 286 286 285 281 278 276 275 275 275 275 274 273 273 273 273 274 274 274 273 273
288 288 288 288 287 286 286 285 284 284 284 284 284 284 285 285 285 284 284 285 285 285 285 284 285 285 285 285 285 286 286 287 287 287 287 287 287 286 285 285 285 285 286 289 288 288 288 288 287 287 286 285 281 278 275 275 275 274 274 274 273 273 274 274 274 274 274 274 273
288 288 288 287 287 286 285 284 284 284 285 285 285 285 285 285 285 285 285 285 285 285 286 285 286 286 286 286 286 287 287 287 287 287 287 287 287 286 285 285 285 285 287 288 288 288 288 288 287 287 286 286 281 277 275 274 274 274 273 273 273 273 273 274 274 274 274 274 273
287 287 287 287 286 285 285 284 285 285 285 285 286 286 286 286 286 286 285 285 285 286 286 286 287 287 288 288 288 288 288 288 288 288 288 287 287 286 286 285 285 286 287 288 288 288 288 288 287 287 286 285 281 277 275 274 274 273 273 273 273 273 273 273 273 273 273 273 272
287 287 287 286 285 285 285 285 285 286 286 287 287 287 287 286 286 286 285 285 285 286 286 286 287 288 288 288 288 288 288 288 288 288 288 287 287 287 286 286 285 286 287 288 288 288 288 288 288 287 286 284 280 277 275 274 274 273 273 273 273 273 273 273 273 273 273 272 272
287 287 287 286 285 285 285 285 286 287 288 288 288 287 287 286 286 285 285 285 285 286 286 287 287 288 288 288 287 287 288 288 289 289 288 287 287 287 286 285 285 286 287 288 288 288 288 288 288 287 286 283 279 276 275 274 274 273 273 273 273 273 273 273 273 273 272 272 271
286 287 287 286 285 285 286 287 288 288 288 288 287 287 287 286 285 285 285 285 286 287 287 287 288 288 288 287 287 288 288 289 289 289 288 287 287 286 286 285 285 285 287 288 288 288 288 288 288 287 285 281 277 275 274 274 274 273 273 273 273 273 272 272 272 272 272 271 272
285 286 286 286 286 286 287 288 288 288 288 287 287 286 286 286 285 285 285 286 287 288 287 288 288 288 287 287 287 287 287 288 287 287 287 287 287 287 286 285 285 285 286 288 288 288 288 288 287 286 284 280 277 275 275 274 274 273 273 272 272 272 271 271 271 271 271 271 274
285 285 286 287 287 288 288 288 288 288 287 287 286 286 286 285 285 285 286 287 288 288 288 288 287 287 286 286 286 285 285 285 285 286 286 287 287 287 287 287 286 285 286 288 288 288 288 288 288 287 284 280 277 276 275 275 274 273 273 272 272 271 271 270 270 270 270 271 277
285 286 288 288 288 288 287 287 287 286 286 286 286 286 285 285 285 286 287 287 287 287 287 287 287 286 286 284 284 284 284 284 284 285 286 287 287 288 288 287 287 286 286 287 288 289 288 288 288 287 284 280 277 276 276 275 274 273 272 271 271 271 271 270 269 269 270 270 275
287 288 288 288 287 287 287 287 286 286 285 285 286 286 285 285 286 287 287 287 287 287 286 286 286 285 284 283 283 283 283 284 284 284 285 286 287 288 289 288 287 286 286 287 288 289 288 288 288 287 284 280 277 276 276 275 274 273 272 271 271 271 271 270 269 269 269 270 270
Wind_Speed
7 7 6 6 6 6 5 5 5 5 5 5 6 5 5 5 5 5 4 4 5 5 4 4 4 4 5 6 7 7 7 6 5 6 6 6 6 5 5 4 4 4 4 4 3 4 4 4 4 3 2 2 2 2 2 1 2 3 3 2 2 1 2 2 1 1 1 1 0
8 8 7 7 6 6 5 5 5 5 5 5 5 6 5 5 5 5 5 5 5 5 5 4 4 5 6 6 7 7 7 6 6 6 6 6 5 5 5 4 4 4 4 4 4 4 4 4 4 3 3 2 2 2 2 1 1 2 3 2 1 1 1 1 1 1 1 1 0
9 8 8 7 7 7 6 5 5 5 5 5 5 5 5 5 5 5 5 5 5 5 5 4 5 5 6 6 6 7 7 7 7 6 5 5 5 5 5 4 4 4 4 4 4 4 4 4 4 3 3 3 3 2 1 1 1 2 2 1 0 1 1 1 1 1 1 1 1
9 9 8 8 9 8 7 6 6 6 6 5 5 5 5 5 5 5 5 5 5 5 5 5 5 5 6 6 6 6 6 7 7 7 6 5 5 5 5 5 5 4 4 4 5 4 4 4 3 3 3 3 3 2 1 0 1 1 1 1 1 1 1 1 1 1 1 1 1
9 8 8 9 9 9 8 7 8 7 6 5 5 5 5 5 5 4 4 5 5 5 5 5 5 5 5 6 7 7 6 6 7 7 6 5 5 5 5 5 5 5 4 5 5 5 4 4 3 3 3 3 2 2 1 1 1 1 0 0 0 1 1 1 1 1 1 1 1
8 8 8 8 9 8 7 7 8 8 7 6 6 6 6 5 5 5 5 5 5 6 6 6 5 5 5 6 6 6 6 5 5 6 6 6 5 5 5 5 5 5 5 5 5 5 4 4 3 3 2 2 2 1 1 1 2 1 1 1 1 0 0 0 1 1 1 1 0
9 9 9 9 9 8 7 7 7 7 7 6 8 8 7 6 6 6 6 6 6 6 6 5 6 6 6 6 6 6 5 5 4 5 6 6 5 5 5 5 5 5 5 5 5 4 4 4 3 3 2 2 2 1 1 1 2 2 1 2 1 1 0 0 0 1 1 1 1
8 9 9 9 9 9 9 8 8 7 6 6 8 9 9 8 8 7 7 6 6 5 5 5 6 7 7 7 6 6 6 6 5 5 5 6 6 6 5 5 5 5 5 5 5 5 4 3 3 3 2 2 2 1 1 2 2 2 1 2 2 1 0 0 0 0 1 2 1
7 8 9 9 9 9 9 9 8 8 7 8 9 9 9 9 9 8 7 6 6 5 5 5 7 7 7 7 7 7 6 6 6 5 5 5 6 6 6 5 5 5 5 5 5 6 5 3 3 3 2 2 2 2 1 2 2 2 1 1 2 1 1 0 0 0 1 1 1
8 8 9 9 9 9 9 8 8 9 9 9 9 9 9 9 9 8 7 6 5 5 5 5 6 7 7 7 7 7 7 7 7 6 6 6 7 7 7 6 6 5 5 4 5 5 5 4 3 2 2 2 2 2 2 2 2 2 0 0 1 2 2 1 0 0 1 1 1
9 9 9 9 9 9 8 8 7 8 9 9 9 9 9 9 8 7 6 6 6 6 6 6 7 7 7 7 7 7 7 6 7 7 7 7 7 7 8 7 7 7 6 5 5 5 5 4 4 3 2 2 2 2 2 2 2 1 1 0 0 1 2 2 1 0 1 1 1
9 9 9 9 9 9 9 8 7 7 8 8 9 9 8 8 8 7 6 6 7 6 6 6 7 8 8 7 7 7 7 7 7 7 7 7 7 7 8 8 8 8 7 6 5 5 4 4 4 4 3 2 2 2 2 3 2 1 1 0 0 0 1 2 2 1 1 1 1
9 9 9 9 9 9 9 8 7 7 7 8 8 8 8 7 8 7 8 8 8 7 6 5 6 7 7 7 7 6 6 7 7 7 7 7 7 7 7 7 8 8 8 7 6 5 5 5 5 5 4 3 2 2 2 3 3 2 1 1 1 0 1 2 2 1 1 1 1
9 9 9 9 9 9 8 8 7 7 7 8 8 8 7 7 7 7 8 8 8 7 6 5 5 6 6 8 7 7 7 7 7 7 7 7 7 7 7 7 8 8 7 6 6 6 7 6 6 6 6 4 3 3 3 3 3 3 2 2 2 1 2 2 2 1 1 1 2
9 9 9 9 9 8 8 8 7 7 7 8 8 7 7 7 7 7 7 8 8 7 6 6 6 6 6 7 7 8 8 7 7 7 7 7 7 7 8 7 8 7 7 6 6 6 7 7 7 7 6 5 4 4 3 3 4 4 4 4 3 3 2 2 2 2 2 2 2
9 9 9 9 9 8 8 7 6 6 7 8 8 7 7 6 6 6 7 8 7 6 6 7 7 6 6 6 7 8 8 8 8 8 7 7 7 7 8 8 8 8 7 7 6 6 5 6 6 6 6 6 5 5 4 4 4 4 4 4 4 4 3 3 2 2 2 2 2
9 9 9 9 9 9 8 8 7 7 7 8 8 8 7 7 6 6 7 7 6 6 6 7 7 6 6 5 6 6 7 7 7 7 7 7 8 8 8 8 8 8 8 8 7 7 6 5 6 6 6 7 6 5 5 4 4 4 4 4 4 4 3 3 3 2 2 2 3
10 10 10 10 10 10 9 9 8 8 8 8 8 8 7 7 7 6 6 7 7 7 8 8 7 7 7 7 5 6 6 7 7 7 7 7 8 8 8 8 8 8 8 8 8 8 7 7 6 6 6 6 6 5 5 4 4 4 4 4 4 4 3 3 3 3 3 3 4
11 11 10 10 10 10 10 10 9 9 9 8 8 7 7 7 8 7 7 6 7 8 9 8 7 7 7 8 7 6 7 7 8 8 8 7 8 8 8 8 8 8 8 8 8 8 8 8 7 7 6 6 5 4 4 4 4 4 4 4 4 3 3 3 3 3 3 4 4
12 11 11 11 11 10 10 10 10 9 8 7 7 8 8 8 8 8 8 8 8 8 8 8 8 7 7 7 8 7 7 7 8 8 8 7 7 8 8 8 8 8 8 8 8 8 8 8 8 8 8 7 6 5 4 3 3 3 3 3 3 3 3 3 3 3 3 4 4
12 12 12 11 11 10 10 10 9 8 7 7 8 8 9 8 8 9 9 9 9 8 8 8 8 8 8 7 8 8 7 6 7 8 8 7 8 8 8 8 8 8 8 8 8 8 9 9 9 9 8 8 7 6 5 4 4 3 3 3 3 3 3 3 3 3 3 4 4
12 12 11 11 11 10 10 9 8 7 7 6 7 8 8 8 9 9 9 9 8 7 7 7 8 9 9 8 9 8 8 6 6 7 7 7 7 8 8 8 8 8 8 8 8 8 9 9 9 9 9 8 8 7 6 5 4 4 3 3 2 2 2 2 2 3 3 4 4
12 11 10 10 9 9 9 8 7 6 6 6 6 7 7 8 8 8 7 7 6 6 6 6 7 8 9 9 9 8 7 6 6 5 6 6 7 7 8 7 8 9 9 8 8 8 8 8 8 8 8 8 8 7 6 6 5 4 3 3 2 1 2 2 2 3 3 4 4
11 10 9 7 8 8 7 6 6 6 5 5 5 5 6 7 6 6 5 5 6 7 7 6 7 7 8 8 8 8 8 7 6 6 6 6 7 7 8 7 8 8 8 7 8 9 9 8 7 7 7 7 7 6 6 6 5 5 4 3 2 1 1 2 2 3 3 4 4
10 9 8 7 7 7 6 6 6 6 5 4 4 5 5 5 5 5 5 5 6 7 7 7 7 7 7 7 7 7 8 8 8 7 7 6 7 7 7 7 7 7 7 7 10 12 12 10 9 7 7 6 6 5 5 4 5 5 4 4 3 2 1 2 3 3 4 4 4
9 9 8 8 7 7 7 7 7 6 5 4 4 4 4 4 4 4 4 5 5 6 6 6 6 5 5 5 5 6 6 7 8 8 8 7 7 7 7 7 7 6 6 8 12 14 14 13 12 9 7 6 5 5 4 4 4 5 5 5 4 3 2 2 3 4 4 4 4
8 8 8 7 7 7 8 7 7 6 5 4 4 4 3 3 3 3 4 4 4 3 3 3 4 4 4 4 5 5 6 6 6 8 8 9 9 9 8 7 6 6 6 9 12 14 15 14 13 11 9 7 6 5 5 4 5 5 5 5 4 4 3 3 4 4 4 4 4
8 8 8 8 8 8 8 7 7 6 5 5 4 4 3 3 3 3 3 3 2 2 2 2 2 2 2 3 4 6 6 6 7 7 8 8 9 9 9 7 6 6 7 10 13 14 14 14 14 13 11 8 6 5 5 5 5 5 5 4 4 4 4 4 4 4 5 5 4
9 8 8 8 8 8 8 7 7 6 5 4 4 4 4 3 3 3 2 2 2 2 2 2 1 1 2 3 5 6 6 7 7 7 7 8 8 8 8 8 7 7 8 11 13 14 14 14 14 13 12 9 6 5 5 5 5 5 4 4 4 4 4 4 4 4 4 5 4
9 9 9 9 9 8 7 7 6 5 5 4 4 4 4 3 3 2 2 2 2 2 2 2 2 3 4 5 5 6 6 6 6 6 7 8 8 8 8 7 7 7 8 12 13 14 14 14 13 13 12 11 8 6 5 4 5 5 4 4 4 4 4 4 4 4 4 4 4
9 9 9 9 8 8 6 5 5 5 5 5 4 4 4 3 2 2 2 2 2 2 2 2 3 3 4 5 5 5 6 6 6 6 7 8 9 8 8 7 7 7 9 13 14 15 15 14 14 14 13 13 10 7 5 5 5 5 5 4 4 5 5 4 4 5 5 4 4
9 9 9 9 8 7 6 5 5 5 5 5 5 4 3 3 2 1 1 2 2 2 2 2 3 3 3 3 4 5 6 7 7 8 8 8 9 8 7 7 7 8 10 15 16 16 16 15 15 16 16 15 11 8 6 5 5 5 5 5 5 5 5 4 4 5 5 5 5
9 9 8 8 7 6 6 5 5 5 5 5 4 4 3 2 1 1 1 2 2 3 3 3 3 3 4 4 4 5 5 6 7 8 8 9 9 8 7 6 6 8 12 17 17 17 17 17 18 18 18 17 11 8 6 5 4 4 4 4 4 4 5 5 5 5 6 6 5
8 8 8 8 7 6 6 5 5 5 5 4 4 3 3 1 1 2 2 2 2 3 3 3 4 4 4 4 5 5 5 6 7 8 8 8 8 7 7 6 5 8 13 18 18 19 19 19 19 19 17 15 10 7 6 5 4 3 3 3 3 4 4 4 5 6 6 6 5
9 8 8 7 7 6 6 6 5 5 5 4 3 2 1 1 2 3 3 3 2 2 2 2 3 3 3 4 4 5 6 6 7 8 8 8 7 7 7 7 6 10 15 19 19 19 19 19 19 18 16 12 8 6 6 5 5 4 4 4 4 4 4 5 5 6 6 6 5
9 9 8 7 7 6 6 6 5 5 4 3 1 1 2 2 3 3 3 2 2 2 2 2 2 2 3 4 4 5 6 7 8 8 8 7 7 7 8 8 8 11 16 19 20 19 19 18 18 17 15 10 7 5 5 5 4 4 4 4 4 5 5 5 5 5 5 5 5
8 9 8 7 7 6 5 5 5 4 3 1 1 2 3 3 3 3 3 2 2 2 2 2 3 3 4 4 5 6 7 7 8 8 8 7 7 8 9 9 9 12 15 19 19 19 19 18 18 17 14 9 6 5 5 4 4 4 3 3 4 5 5 4 4 4 4 4 5
8 8 8 7 6 6 6 6 5 3 1 1 3 3 3 3 3 3 3 3 3 3 3 3 4 4 5 5 5 6 7 8 8 8 8 7 8 9 10 10 10 11 14 18 19 19 19 19 19 17 14 8 7 6 5 4 4 4 3 3 4 4 4 3 3 3 4 4 6
7 7 7 7 6 6 6 5 4 2 2 3 3 3 2 2 3 3 3 3 3 3 3 4 4 5 5 5 5 6 6 7 7 7 8 8 9 10 11 11 11 11 13 17 19 19 20 20 19 18 15 9 7 6 5 5 4 4 4 4 4 4 3 3 2 2 3 4 6
6 7 7 7 7 6 5 4 3 3 3 3 3 3 3 3 3 3 3 3 3 3 3 3 4 5 5 5 5 5 6 7 7 7 8 8 9 11 12 11 11 11 12 16 19 20 20 20 19 18 15 8 6 5 5 4 4 4 4 4 4 3 3 3 2 2 2 3 4
6 6 7 7 6 6 5 4 3 3 3 3 3 3 3 3 3 3 3 2 2 2 2 2 4 4 4 4 4 5 6 7 7 7 7 8 9 10 11 11 11 11 12 15 18 19 19 19 18 17 14 7 5 4 4 4 4 4 5 5 4 4 3 2 2 2 2 3 3
Wind_Direction
115 116 117 119 119 120 121 124 126 128 130 130 131 130 129 126 127 131 133 132 133 136 140 142 141 141 138 134 129 127 126 126 123 121 120 120 123 125 126 123 120 113 107 99 92 88 87 90 92 92 92 93 89 80 70 64 76 75 72 70 80 98 106 95 90 79 69 67 74
116 116 116 115 115 115 116 119 121 124 127 129 131 131 130 128 130 133 135 136 138 139 140 141 139 137 136 136 132 131 130 130 127 123 121 122 126 128 127 125 121 118 113 108 101 99 98 98 98 96 93 87 82 73 59 35 74 76 72 63 88 125 125 112 131 146 141 113 71
122 120 119 118 120 121 122 125 126 127 127 127 129 129 129 128 131 134 138 141 140 139 139 141 141 139 137 136 133 133 134 136 132 128 126 127 129 129 128 127 123 119 116 113 110 109 108 107 104 101 97 89 82 76 62 4 63 79 82 81 170 163 136 132 158 163 150 122 102
125 125 125 126 129 131 132 135 133 132 130 129 126 123 124 127 130 133 136 138 138 140 142 145 144 142 139 136 134 134 136 138 135 133 132 134 135 136 135 131 127 124 121 118 116 115 114 110 106 102 101 98 94 91 85 43 65 79 98 192 192 170 154 163 164 159 147 138 149
129 130 132 134 135 136 136 135 134 134 132 128 124 122 122 124 128 130 133 137 144 148 149 146 144 143 139 134 134 135 136 138 137 136 137 139 142 143 140 135 133 131 128 122 120 119 117 111 105 104 106 109 109 117 132 136 82 69 50 264 213 179 166 169 162 148 138 140 154
134 133 133 133 134 134 132 132 133 132 131 127 124 125 127 131 134 137 141 147 151 150 146 140 137 135 133 130 132 134 136 139 138 138 140 143 146 145 142 139 137 135 131 126 123 121 118 112 107 106 109 113 114 129 149 130 93 65 22 333 305 257 163 173 159 138 124 119 103
139 137 135 134 133 132 132 132 131 130 128 125 127 132 137 141 143 145 148 150 149 146 143 138 137 136 135 133 136 139 141 143 143 143 143 146 148 148 147 145 141 137 134 130 125 122 119 115 113 112 112 111 111 116 122 111 94 71 29 337 312 304 175 208 170 136 128 126 114
140 139 139 138 137 136 135 135 132 130 129 130 136 141 145 147 148 149 149 147 149 150 149 145 144 144 144 144 147 149 150 150 152 152 150 149 150 151 150 147 142 141 140 137 131 128 125 118 118 121 123 118 116 118 121 113 95 78 38 329 310 307 313 282 8 134 137 139 135
140 140 140 139 139 139 140 140 138 136 136 138 143 147 149 150 151 151 152 154 158 156 152 147 148 149 150 151 155 158 159 158 160 161 160 154 153 153 152 147 146 146 147 142 136 133 129 123 121 125 131 130 128 135 136 121 98 84 52 312 308 311 321 346 351 148 156 145 152
145 144 141 139 140 141 141 141 140 139 139 141 146 149 150 152 154 156 160 163 160 156 152 150 149 150 154 158 162 165 166 165 165 165 164 161 158 157 156 154 152 152 152 151 141 135 132 126 125 128 135 136 137 141 140 124 105 96 86 272 313 319 320 319 319 220 190 170 185
149 148 146 144 144 142 140 140 141 140 141 143 148 150 153 156 159 163 164 160 156 159 160 156 152 155 160 166 170 171 171 170 168 167 166 167 165 163 161 160 158 157 157 159 149 140 134 131 132 135 140 145 142 140 135 123 112 109 118 188 170 324 317 307 294 247 205 203 209
151 149 147 144 144 142 142 143 145 145 145 147 151 154 157 162 165 165 161 157 162 167 169 163 159 162 167 174 176 176 174 172 169 167 167 169 169 167 165 163 161 160 161 162 155 146 141 139 140 142 146 154 149 142 137 129 120 119 130 195 143 278 300 293 285 264 219 205 223
152 149 147 145 144 144 145 148 150 151 152 153 156 160 164 170 169 165 161 163 169 173 174 171 167 168 171 177 179 178 176 175 171 168 167 169 169 169 167 166 164 163 163 164 159 153 148 148 147 147 149 154 158 155 149 140 136 138 152 188 174 217 258 270 268 258 230 216 235
152 151 149 148 148 148 149 153 156 158 159 160 163 166 169 173 172 169 167 169 172 174 174 175 176 177 178 179 179 180 179 176 172 169 167 167 168 170 170 171 168 166 165 165 161 156 153 153 153 151 150 153 161 167 163 154 152 157 166 178 189 210 234 249 247 239 226 233 248
156 155 154 152 152 153 155 158 161 163 165 167 170 172 173 176 177 175 173 172 173 172 170 173 182 187 186 182 180 179 178 177 173 171 169 167 169 172 174 174 171 168 166 165 164 161 158 158 156 154 152 154 163 170 172 167 167 170 176 181 186 196 213 229 228 221 218 227 246
161 161 159 158 158 159 161 164 166 169 171 174 176 176 177 179 181 179 177 174 173 169 169 175 183 189 190 186 181 178 177 177 175 173 172 170 173 176 178 175 173 169 166 164 166 166 164 161 159 156 154 157 164 170 175 175 176 180 184 187 186 190 195 206 210 211 212 214 228
166 166 165 164 164 165 167 169 172 175 178 180 180 180 181 181 181 182 180 177 172 170 173 180 182 184 185 188 184 179 177 178 178 178 177 175 175 178 180 180 176 171 167 165 166 167 167 165 161 157 156 158 164 170 175 177 181 185 190 192 189 187 188 192 196 201 206 210 225
171 172 171 170 171 171 172 173 175 179 182 184 184 185 185 182 182 184 185 180 174 173 177 182 181 180 180 184 186 183 180 180 182 183 183 180 177 179 181 183 178 173 168 166 167 167 167 166 163 159 156 159 164 169 172 175 181 187 192 194 191 188 187 189 191 193 199 211 229
176 175 175 176 176 176 177 177 179 182 185 185 186 186 186 185 183 184 186 186 181 178 177 179 180 181 182 183 184 185 185 183 185 187 187 183 178 179 181 183 178 173 170 169 169 168 168 167 164 161 159 160 164 167 169 171 179 188 194 196 193 189 188 191 192 194 200 212 229
178 178 179 180 180 180 180 181 182 183 184 184 185 186 187 188 185 184 186 191 189 184 179 176 179 182 185 184 183 186 189 188 187 188 188 184 180 180 182 181 177 175 173 172 170 169 168 167 165 163 162 163 164 166 169 170 179 189 197 201 195 192 192 195 199 203 209 217 230
181 181 182 182 182 182 183 184 184 182 180 179 182 185 187 187 186 186 189 192 190 186 181 179 181 184 185 184 184 187 192 192 189 189 189 186 184 185 184 179 176 175 175 175 173 172 170 169 168 166 164 164 165 167 169 171 179 190 200 206 202 199 197 202 207 215 223 231 239
183 183 183 183 183 183 184 185 182 178 175 174 178 181 183 184 187 190 191 189 185 185 185 186 187 187 187 186 186 188 190 190 190 191 190 187 189 188 185 178 175 174 176 178 176 174 172 171 169 167 165 165 167 169 170 172 177 185 196 208 209 208 211 215 221 230 238 245 249
183 183 184 184 183 183 183 181 177 174 171 170 173 176 179 182 187 189 188 183 183 187 192 194 195 194 193 190 188 185 184 185 190 194 194 191 191 190 187 180 175 176 178 181 178 175 172 172 171 168 166 165 168 170 172 172 174 178 187 201 208 222 236 241 242 247 253 258 258
181 182 182 182 181 180 178 174 171 170 170 169 170 172 175 180 181 181 180 181 188 194 198 201 202 202 199 196 189 184 180 180 188 195 198 197 194 191 188 185 181 182 183 184 181 178 175 171 171 170 168 166 168 170 171 171 172 175 181 187 193 218 254 269 265 265 266 269 269
179 178 177 177 176 174 171 167 167 169 171 171 168 168 169 172 171 172 176 184 195 201 205 207 208 207 204 200 193 185 181 180 185 190 195 200 199 195 192 191 190 189 188 187 186 182 178 173 172 169 167 164 163 164 167 171 174 177 178 178 177 191 244 278 281 278 273 270 270
175 174 172 171 168 166 165 165 165 166 166 164 163 164 166 165 163 165 173 186 200 207 212 213 214 212 207 201 195 190 186 185 186 188 191 197 200 200 199 198 197 196 193 192 188 184 180 175 170 164 159 156 154 157 166 181 184 182 179 174 169 175 203 254 272 277 277 274 272
172 170 169 164 161 161 162 163 160 158 157 156 161 164 163 154 152 159 171 186 197 206 215 220 222 217 208 198 194 195 196 197 194 193 193 195 198 200 202 204 203 201 196 193 188 183 178 172 166 159 153 149 151 160 173 188 192 190 182 174 170 174 190 218 245 261 271 278 279
170 167 163 157 157 158 157 153 151 152 154 157 160 157 148 138 143 153 166 178 181 186 201 220 222 214 202 199 202 203 205 204 202 201 200 200 200 201 202 204 205 202 196 190 184 179 174 168 161 156 151 145 153 166 179 188 193 192 187 178 174 179 191 209 228 245 259 271 280
166 161 156 154 155 154 151 148 150 153 154 153 146 137 131 130 137 144 151 157 166 181 193 203 186 174 184 205 212 213 212 211 210 209 207 207 207 206 205 203 203 198 190 183 177 173 168 163 158 154 151 150 161 177 189 192 192 190 188 183 181 186 196 210 224 237 248 260 273
159 155 153 153 151 150 149 150 150 148 143 134 127 123 123 125 128 134 147 168 188 196 191 171 154 168 190 206 210 214 217 219 218 214 212 212 214 214 212 205 199 189 180 174 170 167 163 160 157 155 157 164 173 184 193 193 189 187 186 188 189 193 200 211 224 234 243 251 264
154 152 150 149 148 148 148 146 140 133 127 122 121 121 123 125 132 149 170 188 195 188 169 149 159 179 197 206 206 210 215 221 220 218 216 216 218 217 214 206 192 180 172 170 166 164 162 160 159 162 168 177 183 189 193 190 187 186 186 188 192 197 203 212 222 232 238 243 250
150 148 146 145 145 145 142 134 127 123 121 121 121 122 122 121 134 166 191 200 187 171 159 159 177 193 207 213 211 213 217 220 221 220 219 219 220 218 211 202 187 176 170 169 166 164 164 165 167 173 179 185 187 188 188 186 185 185 186 189 194 199 205 212 223 231 237 239 238
146 145 143 143 142 139 132 124 120 117 116 117 115 111 106 104 116 208 224 220 195 184 182 185 196 206 214 217 217 220 223 224 223 222 221 220 220 215 206 196 185 175 172 171 169 169 170 173 177 181 185 186 184 183 182 180 181 182 186 193 200 205 209 215 225 233 239 240 234
143 142 141 140 137 133 125 117 113 111 109 103 93 87 87 104 209 234 235 226 208 196 192 194 201 209 215 216 218 222 226 228 227 227 225 223 218 209 199 192 187 179 176 175 174 175 178 180 183 184 185 183 179 177 177 176 177 182 191 203 213 218 220 224 231 236 240 239 230
142 140 138 136 132 127 120 114 110 103 94 79 67 64 82 202 222 228 229 222 209 204 204 207 208 215 224 229 230 231 234 236 236 234 230 223 213 202 194 190 188 183 180 179 180 181 183 185 185 184 182 177 173 172 174 175 179 186 194 206 221 230 235 235 237 238 237 233 220
142 139 136 132 126 123 119 114 102 88 74 58 38 287 244 232 230 230 227 215 203 211 225 231 229 235 241 247 245 243 242 242 243 241 235 221 206 197 193 191 189 187 185 184 185 186 187 187 185 182 179 172 169 169 173 175 179 185 194 206 224 234 239 239 238 235 230 222 209
140 136 132 128 125 121 114 101 86 75 67 53 247 239 236 234 239 238 229 204 205 222 238 241 243 245 246 248 248 247 246 245 247 245 239 222 204 196 193 191 191 191 190 189 188 188 189 188 185 181 176 168 167 169 172 176 179 185 194 210 227 236 238 235 231 227 222 215 208
133 130 127 124 119 109 97 86 84 86 109 212 225 225 225 226 238 238 228 203 210 226 241 248 250 250 249 247 249 250 251 251 249 247 238 222 206 197 193 192 193 194 193 192 191 190 190 189 186 181 175 167 168 169 170 173 178 187 199 215 230 238 240 232 224 223 222 222 221
129 125 119 113 105 97 92 92 101 124 168 204 215 219 219 221 231 232 223 207 211 224 238 250 254 255 254 253 255 257 259 259 254 245 233 221 209 199 193 191 194 195 194 194 193 193 192 190 186 181 176 168 167 166 166 168 177 188 202 217 231 242 247 239 226 227 235 239 243
124 114 106 101 101 102 105 110 122 144 168 189 206 215 220 223 229 230 228 216 217 227 240 252 260 262 263 262 263 264 266 267 259 245 230 217 208 201 195 192 194 195 196 196 195 194 192 189 186 181 176 167 164 161 159 162 173 188 204 218 226 236 246 251 240 238 246 254 259
109 101 100 104 109 113 117 121 130 147 165 186 208 216 219 224 229 233 233 231 233 239 247 257 264 268 270 269 265 264 265 267 261 247 230 217 209 202 198 195 195 196 197 197 196 194 191 188 185 180 174 161 156 153 152 156 172 191 208 219 219 223 232 250 261 262 258 258 263